Weather History for Edwards AFB North Base, CA

Change the Weather History Date:

Tuesday, January 14, 2014

  Actual Average (KEDW) Record (KEDW)
Temperature  
Mean Temperature 46 °F -  
Max Temperature 69 °F 58 °F 69 °F (2002)
Min Temperature 23 °F 31 °F 7 °F (2007)
Degree Days  
Heating Degree Days 19    
Moisture  
Dew Point 9 °F    
Average Humidity 32    
Maximum Humidity 53    
Minimum Humidity 10    
Precipitation  
Precipitation 0.00 in - - ()
Sea Level Pressure  
Sea Level Pressure 30.48 in    
Wind  
Wind Speed 1 mph (NW)    
Max Wind Speed 7 mph    
Max Gust Speed -    
Visibility 10 miles    
Events      
Averages and records for this station are not official NWS values.
T = Trace of Precipitation, MM = Missing Value Source: NWS Daily Summary

Daily Weather History Graph

Daily Weather History Graph

Search for Another Location

Airport:

Trip Planner

Search our weather history database for the weather conditions in past years. The results will help you decide how hot, cold, wet, or windy it might be!

Date:

Astronomy

Jan. 14, 2014 Rise Set
Actual Time 6:59 AM PST 5:02 PM PST
Civil Twilight 6:31 AM PST 5:29 PM PST
Nautical Twilight 6:00 AM PST 6:00 PM PST
Astronomical Twilight 5:30 AM PST 6:31 PM PST
Moon 4:10 PM PST (1/14) 5:38 AM PST (1/14)
Length of Visible Light 10h 58m
Length of Day
10h 03m
Waxing Gibbous, 98% of the Moon is Illuminated
Jan 14
Waxing Gibbous
Jan 15
Full
Jan 23
Last Quarter
Jan 30
New
Feb 6
First Quarter

Hourly Weather History & Observations

Time (PST) Temp. Windchill Dew Point Humidity Pressure Visibility Wind Dir Wind Speed Gust Speed Precip Events Conditions
12:55 AM 28.0 °F - 7.0 °F 41% 30.46 in 10.0 mi Calm Calm - N/A   Clear
1:55 AM 28.0 °F - 8.1 °F 43% 30.47 in 10.0 mi Calm Calm - N/A   Clear
2:55 AM 26.1 °F - 6.1 °F 43% 30.47 in 10.0 mi Calm Calm - N/A   Clear
3:55 AM 24.1 °F - 7.0 °F 48% 30.47 in 10.0 mi Calm Calm - N/A   Clear
4:55 AM 23.0 °F 18.4 °F 7.0 °F 50% 30.48 in 10.0 mi ESE 3.5 mph - N/A   Clear
5:55 AM 23.0 °F - 8.1 °F 53% 30.51 in 10.0 mi Calm Calm - N/A   Clear
6:55 AM 24.1 °F - 9.0 °F 53% 30.53 in 10.0 mi Calm Calm - N/A   Clear
7:55 AM 28.0 °F - 10.0 °F 47% 30.55 in 10.0 mi Calm Calm - N/A   Clear
8:55 AM 35.1 °F - 12.9 °F 40% 30.57 in 10.0 mi Calm Calm - N/A   Clear
9:55 AM 44.1 °F 42.5 °F 14.0 °F 30% 30.56 in 10.0 mi ENE 3.5 mph - N/A   Clear
10:55 AM 46.9 °F - 16.0 °F 29% 30.54 in 10.0 mi Calm Calm - N/A   Clear
11:55 AM 59.0 °F - 12.9 °F 16% 30.48 in 10.0 mi Calm Calm - N/A   Clear
12:55 PM 60.1 °F - 14.0 °F 16% 30.46 in 10.0 mi SW 3.5 mph - N/A   Clear
1:55 PM 64.0 °F - 10.0 °F 12% 30.43 in 10.0 mi Calm Calm - N/A   Clear
2:55 PM 69.1 °F - 9.0 °F 10% 30.40 in 10.0 mi Calm Calm - N/A   Clear
3:55 PM 66.9 °F - 10.0 °F 11% 30.40 in 10.0 mi Calm Calm - N/A   Clear
5:55 PM 51.1 °F - 9.0 °F 18% 30.44 in 10.0 mi Calm Calm - N/A   Clear
6:55 PM 46.9 °F - 8.1 °F 21% 30.45 in 10.0 mi WNW 4.6 mph - N/A   Clear
7:55 PM 42.1 °F 38.4 °F 7.0 °F 24% 30.46 in 10.0 mi NW 5.8 mph - N/A   Clear
9:55 PM 37.0 °F 34.5 °F 7.0 °F 29% 30.46 in 10.0 mi NNW 3.5 mph - N/A   Clear
10:55 PM 37.0 °F 31.6 °F 6.1 °F 28% 30.45 in 10.0 mi Variable 6.9 mph - N/A   Clear
11:55 PM 33.1 °F - 6.1 °F 32% 30.44 in 10.0 mi Calm Calm - N/A   Clear